7 * 24
多渠道服务支持
IRIDIUM 103 是 IRIDIUM 卫星星座的一部分,由美国 IRIDIUM 公司运营,用于提供全球范围的移动卫星通信服务。该卫星属于 LEO(低地球轨道)卫星,运行在约 780 公里的高度,与其他 IRIDIUM 卫星共同构建通信网络。IRIDIUM 103 主要支持语音通话、短信和数据传输,广泛应用于航空、航海、军事和偏远地区通信。其设计具备抗干扰能力,确保在极端环境下仍可稳定通信。
美国
(US)
| 数据来源 | 国际轨道数据 |
| 星历时间: | 2025-12-13T08:14:37+0800 9小时前 查看轨道信息 |
| 半长轴: | 7155.806km |
| 偏心率: | 0.000157 |
| 轨道倾角: | 86.398° |
| 近地点辐角 | 96.320° |
| 升交点赤经 | 166.242° |
| 平近点角 | 263.818° |
| 近地点: | 776.547km |
| 远地点: | 778.795km |
| 周期: | 100.403分钟 |
| 每日圈数: | 14.342174 |